Time,TemperatureF,DewpointF,PressureIn,WindDirection,WindDirectionDegrees,WindSpeedMPH,WindSpeedGustMPH,Humidity,HourlyPrecipIn,Conditions,Clouds,dailyrainin,SoftwareType,DateUTC
2013-03-10 00:03:00,40.7,27.9,30.37,North,0,0.0,2.0,60,0.00,,,-99.99,WeatherLink 5.7,2013-03-10 05:03:00,
2013-03-10 00:13:00,41.0,28.2,30.37,North,0,0.0,2.0,60,0.00,,,-99.99,WeatherLink 5.7,2013-03-10 05:13:00,
2013-03-10 00:23:00,40.1,28.5,30.37,North,0,1.0,2.0,63,0.00,,,-99.99,WeatherLink 5.7,2013-03-10 05:23:00,
2013-03-10 00:33:00,39.9,28.3,30.38,North,0,0.0,2.0,63,0.00,,,-99.99,WeatherLink 5.7,2013-03-10 05:33:00,
2013-03-10 00:43:00,40.4,27.2,30.38,North,0,0.0,1.0,59,0.00,,,-99.99,WeatherLink 5.7,2013-03-10 05:43:00,
2013-03-10 00:53:00,39.9,26.7,30.38,North,0,0.0,1.0,59,0.00,,,-99.99,WeatherLink 5.7,2013-03-10 05:53:00,
2013-03-10 01:03:00,39.3,27.0,30.38,North,-999,0.0,0.0,61,0.00,,,-99.99,WeatherLink 5.7,2013-03-10 06:03:00,
2013-03-10 01:13:00,38.5,26.6,30.38,North,-999,0.0,0.0,62,0.00,,,-99.99,WeatherLink 5.7,2013-03-10 06:13:00,
2013-03-10 01:23:00,38.2,26.7,30.38,North,0,0.0,1.0,63,0.00,,,-99.99,WeatherLink 5.7,2013-03-10 06:23:00,
2013-03-10 01:33:00,37.8,28.2,30.38,North,0,0.0,2.0,68,0.00,,,-99.99,WeatherLink 5.7,2013-03-10 06:33:00,
2013-03-10 01:43:00,37.9,29.0,30.37,North,0,1.0,3.0,70,0.00,,,-99.99,WeatherLink 5.7,2013-03-10 06:43:00,
2013-03-10 01:53:00,37.9,29.3,30.37,North,0,0.0,2.0,71,0.00,,,-99.99,WeatherLink 5.7,2013-03-10 06:53:00,
2013-03-10 03:03:00,38.3,29.7,30.37,North,0,0.0,2.0,71,0.00,,,-99.99,WeatherLink 5.7,2013-03-10 07:03:00,
2013-03-10 03:13:00,38.6,30.0,30.37,North,0,0.0,2.0,71,0.00,,,-99.99,WeatherLink 5.7,2013-03-10 07:13:00,
2013-03-10 03:23:00,38.5,29.9,30.37,North,0,0.0,2.0,71,0.00,,,-99.99,WeatherLink 5.7,2013-03-10 07:23:00,
2013-03-10 03:33:00,38.3,29.7,30.37,North,0,0.0,2.0,71,0.00,,,-99.99,WeatherLink 5.7,2013-03-10 07:33:00,
2013-03-10 03:43:00,37.8,29.6,30.37,North,-999,0.0,1.0,72,0.00,,,-99.99,WeatherLink 5.7,2013-03-10 07:43:00,
2013-03-10 03:53:00,37.4,29.2,30.37,North,0,0.0,2.0,72,0.00,,,-99.99,WeatherLink 5.7,2013-03-10 07:53:00,
2013-03-10 04:03:00,38.4,29.1,30.38,North,0,2.0,3.0,69,0.00,,,-99.99,WeatherLink 5.7,2013-03-10 08:03:00,
2013-03-10 04:13:00,39.0,29.7,30.38,North,0,2.0,3.0,69,0.00,,,-99.99,WeatherLink 5.7,2013-03-10 08:13:00,
2013-03-10 04:23:00,38.9,28.9,30.38,North,0,0.0,1.0,67,0.00,,,-99.99,WeatherLink 5.7,2013-03-10 08:23:00,
2013-03-10 04:33:00,37.0,28.1,30.38,North,0,0.0,1.0,70,0.00,,,-99.99,WeatherLink 5.7,2013-03-10 08:33:00,
2013-03-10 04:43:00,37.1,28.6,30.39,North,0,1.0,2.0,71,0.00,,,-99.99,WeatherLink 5.7,2013-03-10 08:43:00,
2013-03-10 04:53:00,37.9,29.0,30.39,North,0,1.0,3.0,70,0.00,,,-99.99,WeatherLink 5.7,2013-03-10 08:53:00,
2013-03-10 05:03:00,38.3,28.3,30.39,North,0,0.0,3.0,67,0.00,,,-99.99,WeatherLink 5.7,2013-03-10 09:03:00,
2013-03-10 05:13:00,36.5,28.3,30.39,North,0,0.0,2.0,72,0.00,,,-99.99,WeatherLink 5.7,2013-03-10 09:13:00,
2013-03-10 05:23:00,36.1,28.3,30.39,North,0,0.0,2.0,73,0.00,,,-99.99,WeatherLink 5.7,2013-03-10 09:23:00,
2013-03-10 05:33:00,36.0,27.5,30.40,North,0,1.0,2.0,71,0.00,,,-99.99,WeatherLink 5.7,2013-03-10 09:33:00,
2013-03-10 05:43:00,35.8,28.0,30.39,North,0,0.0,1.0,73,0.00,,,-99.99,WeatherLink 5.7,2013-03-10 09:43:00,
2013-03-10 05:53:00,35.2,27.7,30.39,North,-999,0.0,0.0,74,0.00,,,-99.99,WeatherLink 5.7,2013-03-10 09:53:00,
2013-03-10 06:03:00,34.7,27.6,30.40,North,0,0.0,2.0,75,0.00,,,-99.99,WeatherLink 5.7,2013-03-10 10:03:00,
2013-03-10 06:13:00,35.1,28.0,30.39,North,0,0.0,1.0,75,0.00,,,-99.99,WeatherLink 5.7,2013-03-10 10:13:00,
2013-03-10 06:23:00,35.0,27.9,30.40,North,-999,0.0,0.0,75,0.00,,,-99.99,WeatherLink 5.7,2013-03-10 10:23:00,
2013-03-10 06:33:00,34.8,27.7,30.40,North,-999,0.0,0.0,75,0.00,,,-99.99,WeatherLink 5.7,2013-03-10 10:33:00,
2013-03-10 06:43:00,34.7,28.2,30.40,North,0,0.0,1.0,77,0.00,,,-99.99,WeatherLink 5.7,2013-03-10 10:43:00,
2013-03-10 06:53:00,35.0,28.8,30.41,North,-999,0.0,0.0,78,0.00,,,-99.99,WeatherLink 5.7,2013-03-10 10:53:00,
2013-03-10 07:03:00,35.1,28.9,30.41,North,0,0.0,3.0,78,0.00,,,-99.99,WeatherLink 5.7,2013-03-10 11:03:00,
2013-03-10 07:13:00,34.4,28.2,30.41,North,0,0.0,2.0,78,0.00,,,-99.99,WeatherLink 5.7,2013-03-10 11:13:00,
2013-03-10 07:23:00,34.0,28.2,30.42,North,0,2.0,3.0,79,0.00,,,-99.99,WeatherLink 5.7,2013-03-10 11:23:00,
2013-03-10 07:33:00,35.1,28.6,30.42,North,0,2.0,3.0,77,0.00,,,-99.99,WeatherLink 5.7,2013-03-10 11:33:00,
2013-03-10 07:43:00,34.7,28.2,30.42,North,0,1.0,3.0,77,0.00,,,-99.99,WeatherLink 5.7,2013-03-10 11:43:00,
2013-03-10 07:53:00,34.1,27.6,30.42,North,0,0.0,2.0,77,0.00,,,-99.99,WeatherLink 5.7,2013-03-10 11:53:00,
2013-03-10 08:03:00,34.2,28.1,30.42,North,0,1.0,3.0,78,0.00,,,-99.99,WeatherLink 5.7,2013-03-10 12:03:00,
2013-03-10 08:13:00,34.6,28.1,30.42,North,-999,0.0,0.0,77,0.00,,,-99.99,WeatherLink 5.7,2013-03-10 12:13:00,
2013-03-10 08:23:00,35.1,28.3,30.42,North,-999,0.0,0.0,76,0.00,,,-99.99,WeatherLink 5.7,2013-03-10 12:23:00,
2013-03-10 08:33:00,35.8,29.0,30.42,North,0,1.0,3.0,76,0.00,,,-99.99,WeatherLink 5.7,2013-03-10 12:33:00,
2013-03-10 08:43:00,37.0,29.1,30.42,North,0,2.0,6.0,73,0.00,,,-99.99,WeatherLink 5.7,2013-03-10 12:43:00,
2013-03-10 08:54:00,37.9,29.3,30.42,NE,45,3.0,7.0,71,0.00,,,-99.99,WeatherLink 5.7,2013-03-10 12:54:00,
2013-03-10 09:03:00,38.3,28.7,30.42,East,90,4.0,9.0,68,0.00,,,-99.99,WeatherLink 5.7,2013-03-10 13:03:00,
2013-03-10 09:13:00,39.0,29.0,30.42,East,90,3.0,6.0,67,0.00,,,-99.99,WeatherLink 5.7,2013-03-10 13:13:00,
2013-03-10 09:23:00,40.0,28.8,30.42,East,90,4.0,10.0,64,0.00,,,-99.99,WeatherLink 5.7,2013-03-10 13:23:00,
2013-03-10 09:33:00,39.8,28.6,30.43,ESE,112,6.0,10.0,64,0.00,,,-99.99,WeatherLink 5.7,2013-03-10 13:33:00,
2013-03-10 09:43:00,39.8,28.2,30.42,ENE,67,5.0,11.0,63,0.00,,,-99.99,WeatherLink 5.7,2013-03-10 13:43:00,
2013-03-10 09:53:00,40.0,28.8,30.44,East,90,6.0,11.0,64,0.00,,,-99.99,WeatherLink 5.7,2013-03-10 13:53:00,
2013-03-10 10:03:00,40.1,28.5,30.44,ENE,67,5.0,10.0,63,0.00,,,-99.99,WeatherLink 5.7,2013-03-10 14:03:00,
2013-03-10 10:13:00,40.2,28.6,30.44,ENE,67,5.0,10.0,63,0.00,,,-99.99,WeatherLink 5.7,2013-03-10 14:13:00,
2013-03-10 10:23:00,40.8,28.8,30.43,ESE,112,3.0,8.0,62,0.00,,,-99.99,WeatherLink 5.7,2013-03-10 14:23:00,
2013-03-10 10:33:00,41.2,29.2,30.44,ENE,67,5.0,12.0,62,0.00,,,-99.99,WeatherLink 5.7,2013-03-10 14:33:00,
2013-03-10 10:43:00,41.4,28.9,30.43,East,90,4.0,10.0,61,0.00,,,-99.99,WeatherLink 5.7,2013-03-10 14:43:00,
2013-03-10 10:53:00,42.0,28.7,30.43,ESE,112,4.0,11.0,59,0.00,,,-99.99,WeatherLink 5.7,2013-03-10 14:53:00,
2013-03-10 11:03:00,42.8,29.5,30.43,ESE,112,4.0,9.0,59,0.00,,,-99.99,WeatherLink 5.7,2013-03-10 15:03:00,
2013-03-10 11:13:00,42.9,29.1,30.43,East,90,5.0,10.0,58,0.00,,,-99.99,WeatherLink 5.7,2013-03-10 15:13:00,
2013-03-10 11:23:00,43.9,29.2,30.42,East,90,3.0,7.0,56,0.00,,,-99.99,WeatherLink 5.7,2013-03-10 15:23:00,
2013-03-10 11:33:00,43.8,30.0,30.43,ENE,67,4.0,8.0,58,0.00,,,-99.99,WeatherLink 5.7,2013-03-10 15:33:00,
2013-03-10 11:43:00,45.2,29.5,30.43,ESE,112,3.0,8.0,54,0.00,,,-99.99,WeatherLink 5.7,2013-03-10 15:43:00,
2013-03-10 11:53:00,46.6,30.4,30.42,SE,135,4.0,7.0,53,0.00,,,-99.99,WeatherLink 5.7,2013-03-10 15:53:00,
2013-03-10 12:03:00,46.6,29.4,30.42,SSE,157,4.0,9.0,51,0.00,,,-99.99,WeatherLink 5.7,2013-03-10 16:03:00,
2013-03-10 12:13:00,45.1,29.9,30.42,ESE,112,4.0,9.0,55,0.00,,,-99.99,WeatherLink 5.7,2013-03-10 16:13:00,
2013-03-10 12:23:00,45.4,29.3,30.41,ESE,112,4.0,10.0,53,0.00,,,-99.99,WeatherLink 5.7,2013-03-10 16:23:00,
2013-03-10 12:33:00,45.2,30.4,30.41,ESE,112,5.0,11.0,56,0.00,,,-99.99,WeatherLink 5.7,2013-03-10 16:33:00,
2013-03-10 12:43:00,45.7,30.4,30.41,SSE,157,4.0,9.0,55,0.00,,,-99.99,WeatherLink 5.7,2013-03-10 16:43:00,
2013-03-10 12:53:00,46.2,31.4,30.42,SE,135,4.0,9.0,56,0.00,,,-99.99,WeatherLink 5.7,2013-03-10 16:53:00,
2013-03-10 13:03:00,47.6,31.3,30.41,SE,135,3.0,9.0,53,0.00,,,-99.99,WeatherLink 5.7,2013-03-10 17:03:00,
2013-03-10 13:13:00,46.1,31.7,30.41,ESE,112,4.0,8.0,57,0.00,,,-99.99,WeatherLink 5.7,2013-03-10 17:13:00,
2013-03-10 13:23:00,46.3,31.4,30.41,SE,135,5.0,10.0,56,0.00,,,-99.99,WeatherLink 5.7,2013-03-10 17:23:00,
2013-03-10 13:33:00,46.6,31.7,30.40,SE,135,4.0,10.0,56,0.00,,,-99.99,WeatherLink 5.7,2013-03-10 17:33:00,
2013-03-10 13:43:00,47.3,31.0,30.40,SE,135,4.0,8.0,53,0.00,,,-99.99,WeatherLink 5.7,2013-03-10 17:43:00,
2013-03-10 13:53:00,46.8,31.0,30.40,ESE,112,5.0,9.0,54,0.00,,,-99.99,WeatherLink 5.7,2013-03-10 17:53:00,
2013-03-10 14:03:00,46.5,31.2,30.39,SE,135,4.0,10.0,55,0.00,,,-99.99,WeatherLink 5.7,2013-03-10 18:03:00,
2013-03-10 14:13:00,46.4,31.5,30.39,SE,135,5.0,9.0,56,0.00,,,-99.99,WeatherLink 5.7,2013-03-10 18:13:00,
2013-03-10 14:23:00,46.5,30.7,30.39,South,180,4.0,9.0,54,0.00,,,-99.99,WeatherLink 5.7,2013-03-10 18:23:00,
2013-03-10 14:33:00,46.2,30.5,30.39,ESE,112,4.0,9.0,54,0.00,,,-99.99,WeatherLink 5.7,2013-03-10 18:33:00,
2013-03-10 14:43:00,47.0,30.3,30.39,SSE,157,4.0,9.0,52,0.00,,,-99.99,WeatherLink 5.7,2013-03-10 18:43:00,
2013-03-10 14:53:00,46.2,30.9,30.38,SE,135,3.0,7.0,55,0.00,,,-99.99,WeatherLink 5.7,2013-03-10 18:53:00,
2013-03-10 15:03:00,47.0,31.7,30.38,ESE,112,5.0,10.0,55,0.00,,,-99.99,WeatherLink 5.7,2013-03-10 19:03:00,
2013-03-10 15:13:00,46.1,30.4,30.38,ESE,112,5.0,10.0,54,0.00,,,-99.99,WeatherLink 5.7,2013-03-10 19:13:00,
2013-03-10 15:23:00,46.5,31.2,30.38,SE,135,4.0,8.0,55,0.00,,,-99.99,WeatherLink 5.7,2013-03-10 19:23:00,
2013-03-10 15:33:00,46.4,31.1,30.38,ESE,112,5.0,9.0,55,0.00,,,-99.99,WeatherLink 5.7,2013-03-10 19:33:00,
2013-03-10 15:43:00,46.2,30.9,30.38,SE,135,5.0,10.0,55,0.00,,,-99.99,WeatherLink 5.7,2013-03-10 19:43:00,
2013-03-10 15:53:00,45.6,32.1,30.38,ESE,112,6.0,13.0,59,0.00,,,-99.99,WeatherLink 5.7,2013-03-10 19:53:00,
2013-03-10 16:03:00,45.4,31.0,30.37,SE,135,5.0,11.0,57,0.00,,,-99.99,WeatherLink 5.7,2013-03-10 20:03:00,
2013-03-10 16:13:00,45.4,31.5,30.37,ESE,112,5.0,8.0,58,0.00,,,-99.99,WeatherLink 5.7,2013-03-10 20:13:00,
2013-03-10 16:23:00,44.8,30.5,30.37,ESE,112,5.0,13.0,57,0.00,,,-99.99,WeatherLink 5.7,2013-03-10 20:23:00,
2013-03-10 16:33:00,44.5,31.1,30.37,ESE,112,6.0,11.0,59,0.00,,,-99.99,WeatherLink 5.7,2013-03-10 20:33:00,
2013-03-10 16:43:00,43.9,30.9,30.37,ESE,112,6.0,14.0,60,0.00,,,-99.99,WeatherLink 5.7,2013-03-10 20:43:00,
2013-03-10 16:53:00,45.1,30.3,30.36,SE,135,5.0,9.0,56,0.00,,,-99.99,WeatherLink 5.7,2013-03-10 20:53:00,
2013-03-10 17:03:00,44.7,30.4,30.36,SSE,157,5.0,10.0,57,0.00,,,-99.99,WeatherLink 5.7,2013-03-10 21:03:00,
2013-03-10 17:14:00,44.9,30.6,30.36,SSE,157,5.0,9.0,57,0.00,,,-99.99,WeatherLink 5.7,2013-03-10 21:14:00,
2013-03-10 17:24:00,44.4,30.5,30.36,SE,135,5.0,8.0,58,0.00,,,-99.99,WeatherLink 5.7,2013-03-10 21:24:00,
2013-03-10 17:33:00,43.9,30.1,30.35,ESE,112,5.0,10.0,58,0.00,,,-99.99,WeatherLink 5.7,2013-03-10 21:33:00,
2013-03-10 17:44:00,43.0,30.5,30.36,ESE,112,5.0,9.0,61,0.00,,,-99.99,WeatherLink 5.7,2013-03-10 21:44:00,
2013-03-10 17:53:00,43.3,30.7,30.36,ESE,112,4.0,10.0,61,0.00,,,-99.99,WeatherLink 5.7,2013-03-10 21:53:00,
2013-03-10 18:03:00,42.9,30.4,30.36,SE,135,4.0,8.0,61,0.00,,,-99.99,WeatherLink 5.7,2013-03-10 22:03:00,
2013-03-10 18:13:00,43.2,30.6,30.36,SSE,157,3.0,8.0,61,0.00,,,-99.99,WeatherLink 5.7,2013-03-10 22:13:00,
2013-03-10 18:23:00,43.4,31.2,30.37,SSE,157,4.0,9.0,62,0.00,,,-99.99,WeatherLink 5.7,2013-03-10 22:23:00,
2013-03-10 18:34:00,42.9,30.8,30.37,SSE,157,4.0,8.0,62,0.00,,,-99.99,WeatherLink 5.7,2013-03-10 22:34:00,
2013-03-10 18:43:00,42.8,30.7,30.37,SSE,157,3.0,6.0,62,0.00,,,-99.99,WeatherLink 5.7,2013-03-10 22:43:00,
2013-03-10 18:53:00,42.4,30.7,30.37,SE,135,4.0,8.0,63,0.00,,,-99.99,WeatherLink 5.7,2013-03-10 22:53:00,
2013-03-10 19:03:00,42.4,31.1,30.38,SSE,157,3.0,8.0,64,0.00,,,-99.99,WeatherLink 5.7,2013-03-10 23:03:00,
2013-03-10 19:13:00,43.4,30.8,30.38,SSE,157,2.0,5.0,61,0.00,,,-99.99,WeatherLink 5.7,2013-03-10 23:13:00,
2013-03-10 19:23:00,43.4,30.8,30.38,SSE,157,3.0,10.0,61,0.00,,,-99.99,WeatherLink 5.7,2013-03-10 23:23:00,
2013-03-10 19:33:00,41.8,30.5,30.38,SE,135,3.0,9.0,64,0.00,,,-99.99,WeatherLink 5.7,2013-03-10 23:33:00,
2013-03-10 19:43:00,41.7,30.8,30.38,SSE,157,4.0,11.0,65,0.00,,,-99.99,WeatherLink 5.7,2013-03-10 23:43:00,
2013-03-10 19:53:00,41.6,30.7,30.38,SE,135,3.0,9.0,65,0.00,,,-99.99,WeatherLink 5.7,2013-03-10 23:53:00,
2013-03-10 20:03:00,41.8,30.9,30.37,SE,135,3.0,7.0,65,0.00,,,-99.99,WeatherLink 5.7,2013-03-11 00:03:00,
2013-03-10 20:14:00,41.2,31.1,30.38,SE,135,5.0,9.0,67,0.00,,,-99.99,WeatherLink 5.7,2013-03-11 00:14:00,
2013-03-10 20:23:00,40.6,31.2,30.38,SE,135,3.0,7.0,69,0.00,,,-99.99,WeatherLink 5.7,2013-03-11 00:23:00,
2013-03-10 20:33:00,42.4,31.8,30.38,SE,135,3.0,7.0,66,0.00,,,-99.99,WeatherLink 5.7,2013-03-11 00:33:00,
2013-03-10 20:43:00,41.7,31.9,30.38,SE,135,3.0,7.0,68,0.00,,,-99.99,WeatherLink 5.7,2013-03-11 00:43:00,
2013-03-10 20:53:00,41.1,31.3,30.38,SE,135,3.0,7.0,68,0.00,,,-99.99,WeatherLink 5.7,2013-03-11 00:53:00,
2013-03-10 21:03:00,41.2,31.8,30.38,SE,135,3.0,7.0,69,0.00,,,-99.99,WeatherLink 5.7,2013-03-11 01:03:00,
2013-03-10 21:14:00,42.0,32.2,30.38,SE,135,4.0,8.0,68,0.00,,,-99.99,WeatherLink 5.7,2013-03-11 01:14:00,
2013-03-10 21:23:00,42.0,31.5,30.38,SE,135,3.0,8.0,66,0.00,,,-99.99,WeatherLink 5.7,2013-03-11 01:23:00,
2013-03-10 21:33:00,41.2,31.4,30.38,SSE,157,4.0,11.0,68,0.00,,,-99.99,WeatherLink 5.7,2013-03-11 01:33:00,
2013-03-10 21:43:00,40.8,32.1,30.37,SE,135,4.0,9.0,71,0.00,,,-99.99,WeatherLink 5.7,2013-03-11 01:43:00,
2013-03-10 21:53:00,41.7,31.9,30.37,SE,135,3.0,7.0,68,0.00,,,-99.99,WeatherLink 5.7,2013-03-11 01:53:00,
2013-03-10 22:03:00,42.1,32.7,30.37,SSE,157,3.0,8.0,69,0.00,,,-99.99,WeatherLink 5.7,2013-03-11 02:03:00,
2013-03-10 22:14:00,42.1,32.3,30.36,SSE,157,3.0,9.0,68,0.00,,,-99.99,WeatherLink 5.7,2013-03-11 02:14:00,
2013-03-10 22:23:00,43.0,32.4,30.36,South,180,2.0,7.0,66,0.00,,,-99.99,WeatherLink 5.7,2013-03-11 02:23:00,
2013-03-10 22:33:00,43.3,32.3,30.36,SSE,157,2.0,8.0,65,0.00,,,-99.99,WeatherLink 5.7,2013-03-11 02:33:00,
2013-03-10 22:43:00,44.3,32.5,30.37,SSE,157,1.0,4.0,63,0.00,,,-99.99,WeatherLink 5.7,2013-03-11 02:43:00,
2013-03-10 22:53:00,43.8,32.8,30.37,SSE,157,0.0,4.0,65,0.00,,,-99.99,WeatherLink 5.7,2013-03-11 02:53:00,
2013-03-10 23:03:00,43.2,32.6,30.37,SSE,157,0.0,4.0,66,0.00,,,-99.99,WeatherLink 5.7,2013-03-11 03:03:00,
2013-03-10 23:14:00,42.9,32.3,30.37,SSE,157,1.0,4.0,66,0.00,,,-99.99,WeatherLink 5.7,2013-03-11 03:14:00,
2013-03-10 23:23:00,42.7,32.1,30.37,SSE,157,1.0,4.0,66,0.00,,,-99.99,WeatherLink 5.7,2013-03-11 03:23:00,
2013-03-10 23:33:00,42.7,32.5,30.37,SSE,157,1.0,3.0,67,0.00,,,-99.99,WeatherLink 5.7,2013-03-11 03:33:00,
2013-03-10 23:43:00,42.6,32.4,30.37,SSE,157,0.0,2.0,67,0.00,,,-99.99,WeatherLink 5.7,2013-03-11 03:43:00,
2013-03-10 23:53:00,42.5,32.7,30.36,SSE,157,0.0,2.0,68,0.00,,,-99.99,WeatherLink 5.7,2013-03-11 03:53:00,